K4HOG Weather Reports


Display with metric or nautical units.
time (UTC)temp
F
wind
direction
speed
MPH
gust
MPH
rain 1hr
in
rain 24hr
in
rain mn
in
humidity
%
barometer
mb
20260504070223 58 260 0.0 0.0 0.00 0.00 0.00 93 1016.8
20260504060143 60 218 0.0 0.0 0.00 0.00 0.00 91 1016.9
20260504050611 61 259 0.0 0.0 0.00 0.00 0.00 87 1017.6
20260504050108 61 259 0.0 0.0 0.00 0.00 0.00 87 1017.6
20260504045605 62 259 0.0 0.0 0.00 0.00 0.00 86 1017.5
20260504045100 62 258 0.0 0.0 0.00 0.00 0.00 86 1017.6
20260504044558 62 258 0.0 0.0 0.00 0.00 0.00 85 1017.3
20260504044055 62 258 0.0 0.0 0.00 0.00 0.00 85 1017.5
20260504043552 62 258 0.0 0.0 0.00 0.00 0.00 85 1017.9
20260504043049 62 258 0.0 0.0 0.00 0.00 0.00 84 1017.8
20260504042546 62 293 0.0 0.0 0.00 0.00 0.00 83 1017.8
20260504042043 63 253 0.0 0.0 0.00 0.00 0.00 83 1018.1
20260504041539 63 253 0.0 0.0 0.00 0.00 0.00 82 1017.8
20260504041035 63 253 0.0 0.0 0.00 0.00 0.00 82 1017.8
20260504040533 64 253 0.0 0.0 0.00 0.00 0.00 80 1017.8
20260504040029 64 253 0.0 0.0 0.00 0.00 0.00 80 1017.9
20260504035526 64 253 0.0 0.0 0.00 0.00 0.00 79 1017.8
20260504035022 64 254 0.0 0.0 0.00 0.00 0.00 78 1017.7
20260504034520 64 255 0.0 0.0 0.00 0.00 0.00 77 1017.8
20260504034017 65 255 0.0 0.0 0.00 0.00 0.00 77 1017.7
20260504033515 65 256 0.0 0.0 0.00 0.00 0.00 76 1017.4
20260504033012 65 254 0.0 0.0 0.00 0.00 0.00 76 1017.7
20260504032509 65 227 0.0 0.0 0.00 0.00 0.00 75 1017.5
20260504032005 66 227 0.0 0.0 0.00 0.00 0.00 74 1017.7
20260504031502 66 227 0.0 0.0 0.00 0.00 0.00 73 1017.6
20260504030959 66 83 0.0 0.0 0.00 0.00 0.00 72 1017.4
20260504030456 67 227 0.0 0.0 0.00 0.00 0.00 72 1017.4
20260504025952 67 58 3.0 3.0 0.00 0.00 0.00 71 1017.4
20260504025449 67 191 1.0 1.0 0.00 0.00 0.00 71 1017.6
20260504024946 67 229 1.0 1.0 0.00 0.00 0.00 71 1017.4
20260504024443 67 315 2.0 2.0 0.00 0.00 0.00 71 1017.5
20260504023940 67 266 0.0 0.0 0.00 0.00 0.00 71 1017.2
20260504023436 67 204 0.0 1.0 0.00 0.00 0.00 70 1017.5
20260504022932 68 33 0.0 0.0 0.00 0.00 0.00 69 1017.4
20260504022429 68 322 1.0 1.0 0.00 0.00 0.00 69 1017.3
20260504021925 68 354 0.0 0.0 0.00 0.00 0.00 69 1017.1
20260504021423 68 62 2.0 2.0 0.00 0.00 0.00 68 1017.2
20260504020920 68 73 3.0 4.0 0.00 0.00 0.00 68 1017.2
20260504020416 68 108 0.0 1.0 0.00 0.00 0.00 68 1017.2
20260504015913 68 57 2.0 3.0 0.00 0.00 0.00 67 1017.3
20260504015409 68 343 1.0 1.0 0.00 0.00 0.00 67 1017.0
20260504014905 68 261 0.0 1.0 0.00 0.00 0.00 66 1016.9
20260504014401 69 32 0.0 0.0 0.00 0.00 0.00 65 1016.8
20260504013859 69 108 1.0 1.0 0.00 0.00 0.00 64 1016.7
20260504013357 69 68 2.0 2.0 0.00 0.00 0.00 64 1016.7
20260504012853 69 216 0.0 1.0 0.00 0.00 0.00 64 1016.4
20260504012351 69 61 1.0 2.0 0.00 0.00 0.00 62 1016.7
20260504011848 69 78 2.0 2.0 0.00 0.00 0.00 61 1016.5
20260504011344 70 207 0.0 0.0 0.00 0.00 0.00 60 1016.2
20260504010841 70 75 3.0 3.0 0.00 0.00 0.00 60 1016.2
20260504010336 70 172 2.0 3.0 0.00 0.00 0.00 60 1016.1
20260504005833 70 61 0.0 1.0 0.00 0.00 0.00 60 1016.2
20260504005330 70 112 0.0 0.0 0.00 0.00 0.00 61 1016.1
20260504004827 71 342 1.0 1.0 0.00 0.00 0.00 59 1016.0
20260504004325 71 349 2.0 2.0 0.00 0.00 0.00 58 1016.0
20260504003821 71 316 0.0 0.0 0.00 0.00 0.00 60 1015.9
20260504003318 71 91 2.0 2.0 0.00 0.00 0.00 58 1015.9
20260504002815 72 251 0.0 0.0 0.00 0.00 0.00 58 1016.0
20260504002312 72 209 1.0 1.0 0.00 0.00 0.00 57 1015.9
20260504001809 72 258 1.0 1.0 0.00 0.00 0.00 57 1015.9
20260504001306 73 65 2.0 2.0 0.00 0.00 0.00 56 1016.0
20260504000803 73 16 2.0 2.0 0.00 0.00 0.00 56 1015.9
20260504000300 73 109 1.0 1.0 0.00 0.00 0.00 56 1015.9
20260503235758 73 66 1.0 1.0 0.00 0.00 0.00 57 1015.8
20260503235255 73 61 1.0 2.0 0.00 0.00 0.00 57 1015.8
20260503234753 73 61 2.0 2.0 0.00 0.00 0.00 56 1015.7
20260503234251 74 22 1.0 1.0 0.00 0.00 0.00 56 1015.7
20260503233747 74 76 1.0 2.0 0.00 0.00 0.00 56 1015.8
20260503233243 74 330 0.0 0.0 0.00 0.00 0.00 57 1015.6
20260503232740 74 221 0.0 1.0 0.00 0.00 0.00 58 1015.5
20260503232238 74 10 1.0 1.0 0.00 0.00 0.00 57 1015.5
20260503231736 75 236 0.0 0.0 0.00 0.00 0.00 57 1015.6
20260503231232 75 200 0.0 1.0 0.00 0.00 0.00 55 1015.6
20260503230728 75 281 1.0 1.0 0.00 0.00 0.00 54 1015.4
20260503230226 76 75 2.0 2.0 0.00 0.00 0.00 53 1015.3
20260503225723 76 62 3.0 3.0 0.00 0.00 0.00 52 1015.4
20260503225223 76 48 4.0 4.0 0.00 0.00 0.00 52 1015.3
20260503224720 77 231 0.0 1.0 0.00 0.00 0.00 52 1015.5
20260503224218 77 221 0.0 0.0 0.00 0.00 0.00 52 1015.3
20260503223715 77 252 1.0 1.0 0.00 0.00 0.00 52 1015.4
20260503223213 78 239 0.0 0.0 0.00 0.00 0.00 51 1015.4
20260503222709 78 79 1.0 2.0 0.00 0.00 0.00 50 1015.5
20260503222207 77 212 2.0 2.0 0.00 0.00 0.00 51 1015.4
20260503221706 77 58 2.0 3.0 0.00 0.00 0.00 51 1015.4
20260503221203 77 308 2.0 3.0 0.00 0.00 0.00 50 1015.4
20260503220659 78 52 2.0 2.0 0.00 0.00 0.00 52 1015.5
20260503220156 77 241 0.0 1.0 0.00 0.00 0.00 51 1015.3
20260503215653 77 161 1.0 1.0 0.00 0.00 0.00 51 1015.5
20260503215149 78 65 3.0 4.0 0.00 0.00 0.00 48 1015.4
20260503214648 80 244 1.0 1.0 0.00 0.00 0.00 48 1015.4
20260503214143 80 229 1.0 1.0 0.00 0.00 0.00 47 1015.3
20260503213637 78 257 1.0 1.0 0.00 0.00 0.00 50 1015.4
20260503213133 79 236 0.0 0.0 0.00 0.00 0.00 49 1015.3
20260503212631 80 286 1.0 2.0 0.00 0.00 0.00 50 1015.3
20260503212128 80 243 2.0 3.0 0.00 0.00 0.00 49 1015.2
20260503211626 82 262 3.0 3.0 0.00 0.00 0.00 46 1015.2
20260503211121 82 193 2.0 2.0 0.00 0.00 0.00 46 1015.2
20260503210618 82 211 1.0 2.0 0.00 0.00 0.00 43 1015.1
20260503210115 82 355 2.0 3.0 0.00 0.00 0.00 40 1015.3
20260503205611 82 254 1.0 2.0 0.00 0.00 0.00 41 1015.4
20260503205107 81 63 0.0 2.0 0.00 0.00 0.00 41 1015.4
20260503204604 82 343 1.0 2.0 0.00 0.00 0.00 43 1015.5
20260503204102 82 219 1.0 2.0 0.00 0.00 0.00 43 1015.6
20260503203558 82 237 3.0 3.0 0.00 0.00 0.00 41 1015.6
20260503203055 82 65 6.0 9.0 0.00 0.00 0.00 39 1015.7
20260503202553 81 247 0.0 0.0 0.00 0.00 0.00 45 1015.8
20260503202051 80 45 4.0 4.0 0.00 0.00 0.00 43 1015.8
20260503201549 80 275 1.0 1.0 0.00 0.00 0.00 43 1015.9
20260503201046 81 345 2.0 2.0 0.00 0.00 0.00 44 1016.0
20260503200542 81 222 0.0 1.0 0.00 0.00 0.00 44 1015.9
20260503200039 82 236 2.0 3.0 0.00 0.00 0.00 43 1016.1
20260503195536 80 303 1.0 1.0 0.00 0.00 0.00 48 1015.8
20260503195033 80 59 2.0 3.0 0.00 0.00 0.00 44 1016.0
20260503194530 80 329 3.0 3.0 0.00 0.00 0.00 44 1016.2
20260503194030 79 31 1.0 1.0 0.00 0.00 0.00 48 1016.4
20260503193527 80 78 4.0 6.0 0.00 0.00 0.00 44 1016.3
20260503193022 80 41 2.0 3.0 0.00 0.00 0.00 48 1016.6
20260503192518 78 17 2.0 2.0 0.00 0.00 0.00 50 1016.6
20260503192014 78 84 3.0 4.0 0.00 0.00 0.00 47 1016.6
20260503191511 78 250 1.0 1.0 0.00 0.00 0.00 49 1016.8
20260503191008 79 202 0.0 1.0 0.00 0.00 0.00 50 1016.8
20260503190505 80 266 1.0 1.0 0.00 0.00 0.00 45 1016.9
20260503190002 80 217 4.0 6.0 0.00 0.00 0.00 47 1016.9
20260503185458 81 77 0.0 1.0 0.00 0.00 0.00 44 1017.1
20260503184957 80 70 1.0 2.0 0.00 0.00 0.00 47 1017.3
20260503184454 79 278 1.0 2.0 0.00 0.00 0.00 47 1017.3
20260503183950 78 71 6.0 8.0 0.00 0.00 0.00 49 1017.6
20260503183447 79 27 2.0 2.0 0.00 0.00 0.00 48 1017.4
20260503182944 79 159 1.0 2.0 0.00 0.00 0.00 50 1017.4
20260503182443 78 42 1.0 2.0 0.00 0.00 0.00 48 1017.6
20260503181940 78 343 3.0 4.0 0.00 0.00 0.00 53 1017.5
20260503181437 79 39 4.0 4.0 0.00 0.00 0.00 51 1017.4
20260503180933 78 351 4.0 6.0 0.00 0.00 0.00 50 1017.5
20260503180432 77 13 1.0 1.0 0.00 0.00 0.00 55 1017.6
20260503175928 77 177 3.0 3.0 0.00 0.00 0.00 52 1017.7
20260503175426 77 23 1.0 1.0 0.00 0.00 0.00 52 1017.7
20260503174921 78 329 0.0 0.0 0.00 0.00 0.00 53 1017.8
20260503174420 79 216 2.0 3.0 0.00 0.00 0.00 49 1017.8
20260503173920 77 272 2.0 2.0 0.00 0.00 0.00 53 1017.6
20260503173416 77 273 2.0 3.0 0.00 0.00 0.00 53 1018.2
20260503172913 78 79 5.0 7.0 0.00 0.00 0.00 53 1018.1
20260503172411 78 67 6.0 7.0 0.00 0.00 0.00 51 1018.0
20260503171907 77 324 2.0 2.0 0.00 0.00 0.00 56 1018.3
20260503171404 76 343 3.0 4.0 0.00 0.00 0.00 55 1018.3
20260503170901 76 43 4.0 4.0 0.00 0.00 0.00 53 1018.3
20260503170357 77 243 1.0 2.0 0.00 0.00 0.00 53 1018.2
20260503150749 70 64 6.0 9.0 0.00 0.00 0.00 66 1018.4
20260503150245 70 283 3.0 4.0 0.00 0.00 0.00 67 1018.4
20260503140210 68 325 3.0 4.0 0.00 0.00 0.00 73 1018.4
20260503131140 64 346 2.0 3.0 0.00 0.00 0.00 89 1018.1
20260503130637 63 176 1.0 2.0 0.00 0.00 0.00 91 1017.7
20260503130135 63 339 1.0 1.0 0.00 0.00 0.00 93 1017.8
20260503110527 58 295 0.0 0.0 0.00 0.00 0.00 98 1016.8
20260503090414 58 273 0.0 0.0 0.00 0.00 0.00 97 1015.8
20260503081341 60 261 0.0 0.0 0.00 0.00 0.00 96 1015.4
20260503080837 60 262 0.0 0.0 0.00 0.00 0.00 96 1015.5
20260503080334 60 279 0.0 0.0 0.00 0.00 0.00 96 1015.4